Retour au catalogue

PSLV R/B

ActifHEO
NORAD 37747·ROCKET BODY·🇮🇳 India

Lancé Jul 15, 2011 depuis Satish Dhawan Space Centre

Loading…

Prochains Passages (prochaines 24 heures)

TLE

FraisSource: Space-Track

Époque: Sep 14, 2026, 00:14 UTC

1 37747U 11034B   26257.01004514  .00006055  00000-0  96718-3 0  9994
2 37747  17.8902 188.7849 5790164 310.4677  11.8767  4.36817036226550

Suivez PSLV R/B en temps réel avec AllMySat

Download on the App Store